Clermont County, Batavia, OH

5:55 AM EST on December 10, 2019 (GMT -0500)
Clermont County, Batavia

Weather History for KI69 - September, 2019

Change the Weather History Date:

Friday, September 27, 2019

  Actual Average (WUND) Record (WUND)
Temperature  
Mean Temperature 70 °F -  
Max Temperature 90 °F - - (-1)
Min Temperature 51 °F - - (-1)
Cooling Degree Days 6    
Growing Degree Days 20 (Base 50)    
Moisture  
Dew Point 54 °F    
Average Humidity 60    
Maximum Humidity 83    
Minimum Humidity 33    
Precipitation  
Precipitation 0.00 in - - ()
Sea Level Pressure  
Sea Level Pressure 29.97 in    
Wind  
Wind Speed 2 mph (South)    
Max Wind Speed 12 mph    
Max Gust Speed 18 mph    
Visibility 10 miles    
Events      
Averages and records for this station are not official NWS values.
T = Trace of Precipitation, MM = Missing Value Source: NWS Daily Summary

Daily Weather History Graph

Daily Weather History Graph

Search for Another Location

Airport or City:

Astronomy

Sep. 27, 2019 Rise Set
Actual Time 7:28 AM EDT 7:26 PM EDT
Civil Twilight 7:02 AM EDT 7:52 PM EDT
Nautical Twilight 6:31 AM EDT 8:23 PM EDT
Astronomical Twilight 5:59 AM EDT 8:55 PM EDT
Moon 5:50 AM EDT (9/27) 7:15 PM EDT (9/27)
Length of Visible Light 12h 50m
Length of Day
11h 57m
Waning Crescent, 2% of the Moon is Illuminated
Sep 27
Waning Crescent
Sep 28
New
Oct 5
First Quarter
Oct 13
Full
Oct 21
Last Quarter

Hourly Weather History & Observations

Time (EDT) Temp. Heat Index Dew Point Humidity Pressure Visibility Wind Dir Wind Speed Gust Speed Precip Events Conditions
12:15 AM 54.9 °F - 47.5 °F 76% 30.02 in 10.0 mi Calm Calm - N/A   Clear
12:35 AM 55.4 °F - 46.6 °F 72% 30.02 in 10.0 mi Calm Calm - N/A   Clear
12:59 AM 54.3 °F - 47.3 °F 77% 30.02 in 10.0 mi Calm Calm - N/A   Clear
1:17 AM 54.9 °F - 47.1 °F 75% 30.02 in 10.0 mi Calm Calm - N/A   Clear
1:35 AM 55.9 °F - 44.8 °F 66% 30.03 in 10.0 mi Calm Calm - N/A   Clear
1:55 AM 54.3 °F - 45.5 °F 72% 30.02 in 10.0 mi Calm Calm - N/A   Clear
2:15 AM 51.8 °F - 46.6 °F 82% 30.03 in 10.0 mi Calm Calm - N/A   Clear
2:39 AM 51.8 °F - 46.9 °F 83% 30.02 in 10.0 mi Calm Calm - N/A   Clear
2:57 AM 55.0 °F - 44.4 °F 67% 30.02 in 10.0 mi SE 4.6 mph - N/A   Clear
3:15 AM 55.4 °F - 44.1 °F 66% 30.02 in 10.0 mi SE 3.5 mph - N/A   Clear
3:39 AM 55.6 °F - 44.2 °F 66% 30.01 in 10.0 mi SE 3.5 mph - N/A   Clear
3:57 AM 55.2 °F - 44.2 °F 67% 30.01 in 10.0 mi SE 4.6 mph - N/A   Clear
4:15 AM 55.6 °F - 44.2 °F 66% 30.01 in 10.0 mi SE 3.5 mph - N/A   Clear
4:35 AM 54.9 °F - 45.1 °F 70% 30.01 in 10.0 mi ESE 3.5 mph - N/A   Clear
4:55 AM 53.1 °F - 45.5 °F 75% 30.01 in 10.0 mi ESE 3.5 mph - N/A   Clear
5:19 AM 54.3 °F - 45.0 °F 71% 30.01 in 10.0 mi SE 3.5 mph - N/A   Clear
5:37 AM 54.9 °F - 45.3 °F 70% 30.01 in 10.0 mi Calm Calm - N/A   Clear
5:55 AM 53.6 °F - 45.5 °F 74% 30.01 in 10.0 mi Calm Calm - N/A   Clear
6:15 AM 52.2 °F - 46.6 °F 81% 30.01 in 10.0 mi Calm Calm - N/A   Clear
6:35 AM 52.5 °F - 45.9 °F 78% 30.02 in 10.0 mi Calm Calm - N/A   Clear
6:36 AM 52.7 °F - 45.9 °F 78% 30.02 in 10.0 mi Calm Calm - N/A   Clear
6:59 AM 52.9 °F - 45.7 °F 77% 30.02 in 10.0 mi Calm Calm - N/A   Clear
7:17 AM 51.8 °F - 45.7 °F 80% 30.02 in 10.0 mi Calm Calm - N/A   Clear
7:35 AM 51.3 °F - 46.4 °F 83% 30.03 in 10.0 mi Calm Calm - N/A   Clear
7:55 AM 52.5 °F - 46.4 °F 80% 30.03 in 10.0 mi ESE 3.5 mph - N/A   Clear
8:15 AM 54.5 °F - 48.0 °F 79% 30.03 in 10.0 mi Calm Calm - N/A   Clear
8:39 AM 57.2 °F - 48.2 °F 72% 30.04 in 10.0 mi Calm Calm - N/A   Clear
8:57 AM 58.6 °F - 49.1 °F 71% 30.03 in 10.0 mi Calm Calm - N/A   Clear
9:15 AM 60.6 °F - 50.4 °F 69% 30.03 in 10.0 mi SE 4.6 mph - N/A   Clear
9:35 AM 62.8 °F - 50.5 °F 64% 30.03 in 10.0 mi ESE 3.5 mph - N/A   Clear
9:55 AM 65.3 °F - 51.1 °F 60% 30.03 in 10.0 mi East 3.5 mph - N/A   Clear
10:19 AM 68.2 °F - 52.3 °F 57% 30.03 in 10.0 mi SSE 3.5 mph - N/A   Clear
10:37 AM 71.6 °F - 53.4 °F 53% 30.03 in 10.0 mi SSE 5.8 mph - N/A   Clear
10:55 AM 73.9 °F - 54.1 °F 50% 30.02 in 10.0 mi SSE 5.8 mph - N/A   Clear
11:15 AM 76.5 °F - 51.1 °F 41% 30.01 in 10.0 mi South 8.1 mph - N/A   Clear
11:35 AM 77.4 °F - 52.2 °F 41% 30.01 in 10.0 mi South 6.9 mph - N/A   Clear
1:38 PM 84.6 °F 83.9 °F 57.9 °F 40% 29.95 in 10.0 mi SW 11.5 mph - N/A   Clear
1:56 PM 85.8 °F 84.7 °F 56.8 °F 37% 29.94 in 10.0 mi SSW 8.1 mph - N/A   Clear
2:15 PM 86.4 °F 85.2 °F 57.6 °F 37% 29.94 in 10.0 mi SW 9.2 mph - N/A   Clear
2:35 PM 87.1 °F 85.7 °F 56.1 °F 35% 29.93 in 10.0 mi South 8.1 mph - N/A   Clear
2:55 PM 88.3 °F 86.9 °F 56.5 °F 34% 29.93 in 10.0 mi South 10.4 mph 16.1 mph N/A   Scattered Clouds
3:18 PM 88.9 °F 87.7 °F 57.9 °F 35% 29.93 in 10.0 mi SW 6.9 mph - N/A   Scattered Clouds
3:36 PM 89.2 °F 87.9 °F 57.4 °F 34% 29.92 in 10.0 mi SW 10.4 mph - N/A   Clear
3:55 PM 89.6 °F 88.4 °F 58.1 °F 34% 29.91 in 10.0 mi SSW 6.9 mph - N/A   Clear
4:15 PM 89.6 °F 88.1 °F 57.2 °F 33% 29.90 in 10.0 mi SSW 8.1 mph 18.4 mph N/A   Clear
4:35 PM 90.5 °F 89.3 °F 57.4 °F 33% 29.89 in 10.0 mi SW 10.4 mph 18.4 mph N/A   Clear
4:58 PM 90.5 °F 89.8 °F 59.0 °F 35% 29.90 in 10.0 mi SSW 6.9 mph - N/A   Clear
5:16 PM 90.1 °F 89.9 °F 60.3 °F 37% 29.90 in 10.0 mi South 9.2 mph - N/A   Clear
5:35 PM 89.2 °F 89.3 °F 61.0 °F 39% 29.90 in 10.0 mi SW 6.9 mph - N/A   Clear
5:55 PM 90.1 °F 90.6 °F 62.2 °F 39% 29.91 in 10.0 mi SW 9.2 mph - N/A   Clear
6:15 PM 88.7 °F 89.1 °F 62.1 °F 41% 29.91 in 10.0 mi SW 9.2 mph 16.1 mph N/A   Clear
6:38 PM 87.8 °F 88.5 °F 62.4 °F 43% 29.91 in 10.0 mi SSW 5.8 mph - N/A   Clear
6:56 PM 86.7 °F 87.5 °F 63.0 °F 45% 29.90 in 10.0 mi SSW 4.6 mph - N/A   Clear
7:15 PM 85.5 °F 86.6 °F 63.5 °F 48% 29.90 in 10.0 mi Calm Calm - N/A   Clear
7:35 PM 84.0 °F 85.2 °F 63.5 °F 50% 29.90 in 10.0 mi Calm Calm - N/A   Clear
7:55 PM 82.4 °F 83.7 °F 63.9 °F 53% 29.91 in 10.0 mi Calm Calm - N/A   Clear
8:18 PM 81.0 °F 82.5 °F 64.0 °F 56% 29.92 in 10.0 mi Calm Calm - N/A   Clear
8:36 PM 78.3 °F - 64.4 °F 62% 29.92 in 10.0 mi Calm Calm - N/A   Clear
8:55 PM 75.6 °F - 64.6 °F 69% 29.92 in 10.0 mi Calm Calm - N/A   Clear
9:15 PM 75.6 °F - 64.9 °F 69% 29.92 in 10.0 mi Calm Calm - N/A   Clear
9:35 PM 74.8 °F - 64.6 °F 70% 29.91 in 10.0 mi Calm Calm - N/A   Clear
9:40 PM 74.7 °F - 64.6 °F 71% 29.91 in 10.0 mi Calm Calm - N/A   Clear
9:58 PM 76.3 °F - 64.4 °F 67% 29.91 in 10.0 mi Calm Calm - N/A   Clear
10:16 PM 76.6 °F - 64.2 °F 65% 29.91 in 10.0 mi Calm Calm - N/A   Clear
10:35 PM 73.8 °F - 64.4 °F 72% 29.92 in 10.0 mi Calm Calm - N/A   Clear
10:55 PM 74.7 °F - 64.4 °F 70% 29.92 in 10.0 mi SSE 3.5 mph - N/A   Clear
11:19 PM 76.3 °F - 63.9 °F 65% 29.92 in 10.0 mi Calm Calm - N/A   Clear
11:38 PM 75.9 °F - 63.7 °F 66% 29.92 in 10.0 mi Calm Calm - N/A   Clear
11:56 PM 75.7 °F - 63.5 °F 66% 29.92 in 10.0 mi South 3.5 mph - N/A   Clear